When you browse on this site, cookies collect data to enhance your experience and personalize the content and advertising you see.
Visit our Privacy Policy to learn more. By continuing to use the site, you agree to this use of cookies and data.
  • In Hungary
  • List of Countries
  • For 7 days
  • Water Temperature
  • Weather Map
  • News
  • Weather Widgets
  • user-avatar
    Login

    Hourly Weather Torremaggiore

    Today, 25 May, Monday

    Time Temperature Precipitation Wind Pressure Humidity
    00:00 +17°C° 0 mm 3 mps 756 mmHg 87%
    01:00 +16°C° 0 mm 3 mps 756 mmHg 88%
    02:00 +14°C° 0 mm 3 mps 756 mmHg 87%
    03:00 +14°C° 0 mm 3 mps 756 mmHg 87%
    04:00 +13°C° 0 mm 3 mps 756 mmHg 86%
    05:00 +16°C° 0 mm 3 mps 756 mmHg 79%
    06:00 +17°C° 0 mm 4 mps 756 mmHg 73%
    07:00 +18°C° 0 mm 4 mps 756 mmHg 66%
    08:00 +19°C° 0 mm 4 mps 756 mmHg 59%
    09:00 +21°C° 0 mm 5 mps 756 mmHg 52%
    10:00 +22°C° 0 mm 5 mps 757 mmHg 45%
    11:00 +22°C° 0 mm 5 mps 756 mmHg 43%
    12:00 +23°C° 0 mm 5 mps 756 mmHg 40%
    13:00 +23°C° 0 mm 5 mps 755 mmHg 38%
    14:00 +23°C° 0 mm 4 mps 755 mmHg 38%
    15:00 +23°C° 0 mm 4 mps 755 mmHg 38%
    16:00 +22°C° 0 mm 3 mps 754 mmHg 38%
    17:00 +21°C° 0 mm 3 mps 754 mmHg 44%
    18:00 +19°C° 0 mm 2 mps 754 mmHg 50%
    19:00 +18°C° 0 mm 1 mps 754 mmHg 56%
    20:00 +18°C° 0 mm 1 mps 754 mmHg 56%
    21:00 +16°C° 0 mm 1 mps 755 mmHg 55%
    22:00 +15°C° 0 mm 1 mps 755 mmHg 55%
    23:00 +15°C° 0 mm 2 mps 755 mmHg 56%

    Tomorrow, 26 May, Tuesday

    Time Temperature Precipitation Wind Pressure Humidity
    00:00 +14°C° 0 mm 2 mps 755 mmHg 56%
    01:00 +14°C° 0 mm 2 mps 755 mmHg 57%
    02:00 +14°C° 0 mm 2 mps 755 mmHg 57%
    03:00 +14°C° 0 mm 2 mps 755 mmHg 58%
    04:00 +14°C° 0 mm 2 mps 755 mmHg 58%
    05:00 +14°C° 0.1 mm 4 mps 755 mmHg 60%
    06:00 +15°C° 0.1 mm 5 mps 755 mmHg 62%
    07:00 +17°C° 0.1 mm 6 mps 755 mmHg 64%
    08:00 +17°C° 0 mm 6 mps 755 mmHg 59%
    09:00 +18°C° 0 mm 7 mps 756 mmHg 54%
    10:00 +18°C° 0 mm 8 mps 756 mmHg 49%
    11:00 +20°C° 0 mm 8 mps 756 mmHg 48%
    12:00 +19°C° 0 mm 9 mps 756 mmHg 47%
    13:00 +19°C° 0 mm 9 mps 755 mmHg 46%
    14:00 +19°C° 0 mm 9 mps 755 mmHg 47%
    15:00 +19°C° 0 mm 9 mps 755 mmHg 48%
    16:00 +18°C° 0 mm 9 mps 755 mmHg 50%
    17:00 +17°C° 0 mm 7 mps 755 mmHg 54%
    18:00 +16°C° 0 mm 6 mps 755 mmHg 59%
    19:00 +15°C° 0 mm 5 mps 755 mmHg 64%
    20:00 +15°C° 0 mm 5 mps 755 mmHg 65%
    21:00 +14°C° 0 mm 5 mps 755 mmHg 65%
    22:00 +13°C° 0 mm 5 mps 755 mmHg 66%
    23:00 +13°C° 0.1 mm 5 mps 755 mmHg 67%

    Day after tomorrow, 27 May, Wednesday

    Time Temperature Precipitation Wind Pressure Humidity
    00:00 +13°C° 0.1 mm 6 mps 755 mmHg 68%
    01:00 +13°C° 0.1 mm 6 mps 755 mmHg 70%
    02:00 +13°C° 0.1 mm 6 mps 755 mmHg 72%
    03:00 +13°C° 0.1 mm 6 mps 755 mmHg 74%
    04:00 +13°C° 0.1 mm 6 mps 754 mmHg 77%
    05:00 +14°C° 0.3 mm 7 mps 754 mmHg 75%
    06:00 +15°C° 0.3 mm 7 mps 755 mmHg 73%
    07:00 +16°C° 0.3 mm 8 mps 755 mmHg 71%
    08:00 +17°C° 0.2 mm 8 mps 755 mmHg 67%
    09:00 +18°C° 0.2 mm 8 mps 755 mmHg 63%
    10:00 +20°C° 0.2 mm 8 mps 755 mmHg 60%
    11:00 +20°C° 0 mm 8 mps 755 mmHg 56%
    12:00 +21°C° 0 mm 8 mps 755 mmHg 53%
    13:00 +21°C° 0 mm 8 mps 755 mmHg 50%
    14:00 +21°C° 0 mm 8 mps 755 mmHg 51%
    15:00 +20°C° 0 mm 8 mps 755 mmHg 53%
    16:00 +19°C° 0 mm 9 mps 754 mmHg 54%
    17:00 +18°C° 0 mm 8 mps 754 mmHg 59%
    18:00 +17°C° 0 mm 7 mps 754 mmHg 63%
    19:00 +16°C° 0 mm 6 mps 754 mmHg 67%
    20:00 +15°C° 0 mm 5 mps 755 mmHg 68%
    21:00 +14°C° 0 mm 5 mps 755 mmHg 70%
    22:00 +14°C° 0 mm 5 mps 755 mmHg 71%
    23:00 +14°C° 0 mm 5 mps 755 mmHg 70%

    28 May, Thursday

    Time Temperature Precipitation Wind Pressure Humidity
    00:00 +14°C° 0 mm 5 mps 755 mmHg 69%
    01:00 +13°C° 0 mm 5 mps 755 mmHg 69%
    02:00 +13°C° 0 mm 5 mps 754 mmHg 68%
    03:00 +13°C° 0 mm 5 mps 754 mmHg 67%
    04:00 +13°C° 0 mm 5 mps 754 mmHg 66%
    05:00 +15°C° 0 mm 6 mps 754 mmHg 64%
    06:00 +16°C° 0 mm 6 mps 754 mmHg 62%
    07:00 +18°C° 0 mm 7 mps 754 mmHg 60%
    08:00 +20°C° 0 mm 7 mps 754 mmHg 58%
    09:00 +21°C° 0 mm 7 mps 754 mmHg 57%
    10:00 +22°C° 0 mm 7 mps 754 mmHg 55%
    11:00 +22°C° 0 mm 7 mps 754 mmHg 53%
    12:00 +22°C° 0 mm 7 mps 754 mmHg 51%
    13:00 +23°C° 0 mm 7 mps 753 mmHg 49%
    14:00 +23°C° 0 mm 6 mps 753 mmHg 47%
    15:00 +22°C° 0 mm 6 mps 752 mmHg 45%
    16:00 +22°C° 0 mm 6 mps 752 mmHg 42%
    17:00 +21°C° 0 mm 4 mps 752 mmHg 47%
    18:00 +19°C° 0 mm 3 mps 752 mmHg 51%
    19:00 +18°C° 0 mm 2 mps 752 mmHg 56%
    20:00 +17°C° 0 mm 2 mps 752 mmHg 57%
    21:00 +16°C° 0 mm 2 mps 752 mmHg 58%
    22:00 +15°C° 0 mm 2 mps 752 mmHg 60%
    23:00 +15°C° 0 mm 2 mps 752 mmHg 59%

    29 May, Friday

    Time Temperature Precipitation Wind Pressure Humidity
    00:00 +15°C° 0 mm 2 mps 752 mmHg 58%
    01:00 +15°C° 0 mm 2 mps 751 mmHg 57%
    02:00 +14°C° 0 mm 2 mps 751 mmHg 58%
    03:00 +14°C° 0 mm 2 mps 751 mmHg 58%
    04:00 +14°C° 0 mm 2 mps 751 mmHg 59%
    05:00 +16°C° 0 mm 2 mps 751 mmHg 56%
    06:00 +18°C° 0 mm 2 mps 751 mmHg 52%
    07:00 +19°C° 0 mm 2 mps 751 mmHg 49%
    08:00 +21°C° 0 mm 3 mps 751 mmHg 48%
    09:00 +22°C° 0 mm 3 mps 751 mmHg 46%
    10:00 +25°C° 0 mm 4 mps 751 mmHg 45%
    11:00 +25°C° 0 mm 4 mps 751 mmHg 43%
    12:00 +26°C° 0 mm 4 mps 751 mmHg 42%
    13:00 +26°C° 0 mm 4 mps 751 mmHg 40%
    14:00 +26°C° 0 mm 4 mps 751 mmHg 41%
    15:00 +25°C° 0 mm 4 mps 750 mmHg 42%
    16:00 +25°C° 0 mm 4 mps 750 mmHg 42%
    17:00 +22°C° 0 mm 3 mps 750 mmHg 49%
    18:00 +21°C° 0 mm 3 mps 750 mmHg 55%
    19:00 +19°C° 0 mm 2 mps 750 mmHg 61%
    20:00 +18°C° 0 mm 2 mps 751 mmHg 62%
    21:00 +18°C° 0 mm 2 mps 751 mmHg 62%
    22:00 +18°C° 0 mm 1 mps 751 mmHg 63%
    23:00 +18°C° 0 mm 1 mps 751 mmHg 65%

    30 May, Saturday

    Time Temperature Precipitation Wind Pressure Humidity
    00:00 +16°C° 0 mm 1 mps 751 mmHg 68%
    01:00 +15°C° 0 mm 1 mps 751 mmHg 70%
    02:00 +15°C° 0 mm 1 mps 751 mmHg 71%
    03:00 +15°C° 0 mm 1 mps 750 mmHg 73%
    04:00 +15°C° 0 mm 1 mps 750 mmHg 74%
    05:00 +16°C° 0 mm 1 mps 750 mmHg 68%
    06:00 +19°C° 0 mm 1 mps 751 mmHg 62%
    07:00 +21°C° 0 mm 1 mps 751 mmHg 56%
    08:00 +21°C° 0 mm 2 mps 751 mmHg 52%
    09:00 +23°C° 0 mm 2 mps 751 mmHg 48%
    10:00 +24°C° 0 mm 3 mps 751 mmHg 45%
    11:00 +23°C° 0.1 mm 4 mps 751 mmHg 45%
    12:00 +23°C° 0.1 mm 4 mps 751 mmHg 46%
    13:00 +25°C° 0.1 mm 5 mps 751 mmHg 46%
    14:00 +23°C° 0.1 mm 4 mps 751 mmHg 46%
    15:00 +24°C° 0.1 mm 3 mps 751 mmHg 45%
    16:00 +22°C° 0.1 mm 3 mps 751 mmHg 45%
    17:00 +21°C° 0 mm 2 mps 751 mmHg 51%
    18:00 +20°C° 0 mm 2 mps 751 mmHg 58%
    19:00 +19°C° 0 mm 1 mps 751 mmHg 64%
    20:00 +18°C° 0 mm 1 mps 751 mmHg 67%
    21:00 +16°C° 0 mm 1 mps 751 mmHg 70%
    22:00 +15°C° 0 mm 1 mps 751 mmHg 73%
    23:00 +15°C° 0 mm 1 mps 751 mmHg 74%
    Show more